Wind_Speed
56 56 52 56 63 74 77 89 89 89 82 81 76 70 69 72 66 73 73 69 61 63 62 61 61 64 61 57 57 54 53 52 53 51 51 45 45 46 45 40 38 41 41 40
59 52 55 59 62 65 70 75 90 95 89 84 82 78 78 73 70 70 72 74 72 66 62 65 63 59 59 59 60 57 56 54 55 59 52 53 52 50 48 47 43 40 47 45
62 61 60 57 59 57 63 72 79 92 97 93 88 83 83 78 73 71 74 74 76 73 67 65 65 68 69 66 62 62 60 55 55 56 58 58 59 57 53 51 54 54 47 51
67 64 62 59 55 53 55 66 76 78 88 97 97 89 89 86 80 75 74 77 78 79 77 74 69 69 69 72 67 64 64 65 64 66 64 64 59 56 58 55 54 51 51 57
66 64 64 62 58 59 55 60 70 75 79 87 99 99 93 92 87 84 82 81 83 86 84 82 78 73 75 71 71 69 70 69 68 69 64 64 64 61 57 54 52 52 53 58
75 69 69 66 64 61 58 59 63 71 76 78 87 100 102 100 93 94 93 90 86 86 88 88 86 83 73 68 68 67 71 69 66 69 66 62 59 58 59 58 57 58 60 62
75 73 69 68 66 63 60 58 57 67 71 68 76 89 106 102 101 101 99 90 88 87 88 88 88 86 80 77 73 70 65 69 72 73 73 66 64 67 66 64 62 63 65 65
80 77 71 69 67 64 62 61 61 58 65 69 73 79 90 100 107 104 102 99 95 92 91 90 89 87 84 81 82 81 75 70 67 66 68 67 66 64 63 61 56 56 61 63
83 82 78 73 72 69 66 62 65 60 60 73 71 75 78 86 99 109 107 104 102 99 97 94 92 89 87 86 86 86 82 75 71 71 65 67 71 69 64 66 64 60 60 62
88 86 81 78 77 74 70 68 68 64 59 64 67 71 75 78 85 96 108 109 107 105 103 100 97 96 93 91 92 92 89 88 83 78 75 75 73 71 65 61 63 61 62 63
91 90 85 83 82 78 74 72 67 67 64 61 61 71 70 74 78 84 93 105 109 109 108 105 102 101 100 98 96 94 93 90 89 89 89 87 86 81 74 66 65 67 65 67
94 94 90 90 82 81 76 74 72 69 65 63 63 65 65 70 73 79 84 91 103 109 110 110 108 106 104 103 102 100 97 94 93 92 91 90 91 91 87 85 84 84 84 82
98 98 95 91 90 88 83 78 75 71 71 68 69 63 63 68 71 72 77 83 88 99 110 111 111 110 108 106 106 103 102 99 97 96 95 95 92 85 83 82 77 76 76 80
101 101 100 97 96 89 86 80 77 76 76 71 71 70 64 66 69 74 75 78 82 84 91 102 112 113 113 112 109 106 104 103 101 100 101 100 97 94 94 89 84 80 78 77
104 103 103 102 99 95 92 87 84 82 79 78 74 71 68 67 67 67 69 72 75 76 82 84 90 100 110 113 111 111 109 106 104 103 103 101 100 100 97 95 92 81 84 82
104 104 104 105 104 101 98 96 91 87 84 82 81 76 73 73 72 71 71 71 72 75 76 76 81 85 88 97 106 112 113 110 108 107 107 105 104 101 103 99 96 92 91 90
104 108 107 105 105 106 104 102 97 94 91 87 85 82 78 78 76 75 73 72 72 73 74 75 76 78 82 86 87 89 97 107 111 111 110 108 106 104 104 103 102 102 102 102
103 107 109 110 109 109 107 105 103 101 97 95 91 87 87 84 82 81 77 75 75 75 75 75 76 76 77 78 84 87 87 87 92 100 107 109 111 111 109 106 102 101 103 106
98 105 110 112 113 111 110 109 109 108 105 102 99 95 93 91 89 88 84 81 78 77 77 79 78 78 79 79 80 80 83 87 88 87 88 93 99 103 106 110 112 110 108 107
94 100 105 112 115 113 113 110 111 111 112 108 106 103 100 99 98 97 91 88 86 83 81 79 81 82 81 81 82 83 83 83 82 84 85 86 87 88 91 94 99 103 107 110
88 95 99 105 111 114 114 115 115 115 114 110 111 109 108 108 107 99 99 99 95 92 89 86 83 82 84 85 85 85 84 84 84 84 84 83 84 85 86 86 87 87 89 92
82 88 94 100 104 107 115 119 121 119 117 115 116 116 115 113 111 107 105 104 101 98 95 93 91 88 86 86 87 87 86 87 88 86 84 83 83 84 84 84 85 86 87 86
80 86 92 95 99 103 108 117 118 121 121 121 121 119 118 116 114 112 110 108 106 103 101 98 96 95 94 92 89 89 90 91 90 92 92 90 87 85 85 84 84 84 84 84
75 82 86 91 93 99 104 112 116 117 121 123 123 122 121 120 118 117 115 113 110 108 107 106 103 101 99 97 96 96 96 95 95 95 96 96 94 92 88 85 85 83 84 84
73 79 81 84 90 95 96 104 110 115 115 117 119 120 121 122 121 120 118 116 114 112 111 110 108 107 106 105 103 102 102 102 101 100 99 99 99 98 95 92 90 88 85 86
78 77 80 79 90 93 93 97 101 105 108 110 113 115 118 120 121 122 121 120 118 116 115 113 112 112 111 110 109 108 108 107 108 107 107 106 106 104 102 99 96 95 92 90
Wind_Direction
234 233 235 233 227 228 226 224 224 224 222 222 221 218 222 219 217 223 227 227 220 221 224 227 232 231 230 232 235 233 232 237 235 239 241 249 243 244 247 245 254 261 265 266
232 233 235 234 234 230 229 226 225 224 223 223 222 218 222 220 220 220 223 227 229 226 226 227 229 231 228 229 231 228 230 238 239 239 247 248 247 252 252 253 250 264 265 260
230 230 234 237 236 235 232 228 227 226 225 225 223 221 222 222 220 221 223 225 229 231 224 224 225 222 229 231 231 230 232 235 239 243 246 248 250 254 255 261 261 264 262 258
230 230 235 240 238 236 233 229 229 227 226 223 224 221 220 222 223 221 223 225 227 230 229 224 225 226 227 228 231 234 237 241 244 247 248 249 248 255 258 260 262 259 259 260
230 230 234 237 237 235 232 229 227 228 226 225 222 221 221 222 222 224 222 224 225 227 229 229 223 224 228 228 233 237 238 243 247 249 248 252 253 255 259 258 258 256 256 258
229 229 232 235 236 234 232 233 229 226 228 225 224 222 222 222 220 223 225 222 225 228 229 230 231 227 225 229 234 236 236 241 246 253 252 252 253 256 260 262 263 261 257 263
228 228 229 233 235 233 231 234 234 230 228 227 225 225 224 222 223 224 226 225 226 229 232 233 232 233 231 227 226 234 237 236 240 247 251 255 256 257 266 266 267 268 269 270
228 227 228 230 233 231 230 231 232 230 227 227 225 224 225 223 224 224 225 225 225 227 230 234 235 235 231 232 233 233 232 236 244 246 248 253 257 260 262 264 265 265 267 268
227 228 227 227 229 231 231 233 235 232 230 229 225 227 224 225 225 225 225 226 226 226 228 231 233 236 236 235 235 234 233 233 232 240 244 246 251 256 257 259 259 261 259 264
225 228 227 227 229 230 230 231 233 231 231 234 228 226 226 226 226 227 226 226 228 228 228 229 232 233 235 236 237 237 235 233 232 236 239 243 247 247 250 251 255 255 258 263
223 226 226 229 229 230 230 231 234 233 232 234 232 229 226 226 227 227 227 228 228 229 229 229 231 233 234 234 237 239 240 239 239 240 240 241 243 244 246 244 247 254 254 256
222 223 225 228 231 232 231 232 232 232 232 232 233 231 228 226 228 229 228 228 229 229 231 232 231 232 234 235 236 237 240 240 240 240 242 242 244 245 247 250 253 255 256 257
221 222 224 226 229 231 231 232 231 232 234 233 235 232 231 227 225 229 230 230 229 230 231 232 234 234 234 236 238 238 238 238 240 242 244 246 246 245 247 247 248 251 253 256
222 224 223 223 227 231 233 234 234 233 234 234 234 234 233 236 231 229 231 232 232 231 232 234 235 236 237 237 238 240 241 241 240 240 242 244 247 248 249 251 253 258 258 256
224 225 226 225 225 226 230 232 233 234 234 236 235 236 232 235 237 235 234 234 234 235 235 234 236 237 238 239 240 241 241 242 243 244 244 244 245 248 249 251 253 252 256 261
226 227 228 228 227 227 228 229 230 232 234 234 234 234 235 234 235 236 236 235 234 234 235 236 237 236 238 240 241 242 243 244 245 246 246 246 246 246 247 248 250 252 253 250
226 227 228 230 231 230 229 229 230 231 232 234 235 233 236 236 235 235 237 238 238 237 237 236 236 237 238 238 239 241 243 244 245 246 247 247 247 248 249 249 250 252 253 254
225 226 229 229 230 231 232 231 231 231 232 233 233 232 235 235 235 235 235 237 237 238 239 239 238 238 239 240 241 240 239 241 244 245 245 246 248 249 248 250 250 252 254 255
226 227 227 230 232 232 233 232 232 232 233 234 234 234 234 234 235 236 235 235 236 238 239 239 240 241 241 241 243 244 244 243 242 242 244 246 247 247 248 250 251 250 252 255
230 229 229 229 230 232 234 235 236 236 235 235 236 235 234 235 236 235 235 235 235 236 237 238 239 240 241 243 244 244 244 245 246 247 246 246 246 247 248 249 250 251 252 253
231 232 231 231 231 232 233 234 235 237 239 238 239 238 238 237 237 238 237 237 236 235 235 236 238 239 241 242 244 247 249 248 246 246 246 248 250 250 250 250 250 251 253 254
234 233 233 233 233 231 232 234 234 236 236 237 239 240 240 240 240 241 240 241 240 239 239 238 238 238 239 241 243 245 247 249 251 250 248 247 248 249 251 252 253 254 254 253
233 233 233 233 233 233 232 234 235 236 237 237 237 238 240 241 242 243 243 243 244 244 244 243 242 241 240 240 241 243 245 247 249 251 252 250 248 248 250 251 252 254 256 258
240 238 234 234 234 234 232 233 235 235 236 238 239 239 239 240 241 242 243 243 244 244 245 245 244 244 244 242 242 243 242 244 247 248 251 252 251 250 250 250 252 254 256 258
239 239 238 236 234 235 233 233 233 235 235 236 238 239 240 241 242 242 243 244 244 245 245 245 245 246 245 243 241 240 242 243 245 247 248 250 252 252 251 251 251 252 254 257
241 238 237 235 236 236 235 234 234 235 235 236 236 237 239 241 242 243 244 244 244 244 244 244 245 245 245 246 244 243 242 242 244 245 246 247 249 250 252 252 251 252 253 255
Height
10551 10555 10566 10566 10570 10574 10588 10602 10611 10619 10634 10644 10660 10669 10673 10684 10692 10700 10706 10712 10721 10724 10729 10738 10746 10751 10757 10760 10765 10770 10774 10777 10781 10784 10789 10793 10795 10797 10800 10803 10805 10808 10809 10811
10534 10548 10544 10549 10555 10567 10576 10585 10592 10600 10616 10628 10639 10654 10656 10668 10680 10687 10693 10699 10705 10711 10721 10727 10733 10738 10744 10747 10752 10758 10764 10768 10771 10775 10779 10784 10786 10788 10791 10795 10796 10798 10800 10801
10520 10526 10527 10535 10543 10554 10562 10568 10571 10580 10598 10611 10624 10636 10645 10657 10665 10674 10682 10685 10691 10698 10706 10711 10718 10724 10729 10736 10741 10747 10751 10758 10763 10765 10768 10772 10774 10778 10782 10786 10788 10789 10790 10791
10501 10511 10517 10521 10532 10539 10547 10548 10555 10567 10577 10591 10603 10624 10627 10638 10652 10661 10666 10671 10676 10680 10687 10694 10702 10710 10717 10721 10726 10736 10742 10745 10751 10753 10757 10759 10763 10768 10773 10775 10776 10778 10780 10781
10492 10497 10499 10506 10515 10519 10527 10530 10538 10548 10557 10570 10583 10598 10614 10620 10634 10643 10646 10651 10656 10660 10667 10676 10687 10692 10698 10710 10718 10726 10729 10732 10737 10740 10743 10748 10752 10758 10762 10764 10766 10768 10768 10769
10464 10477 10482 10492 10496 10504 10515 10517 10526 10531 10537 10553 10566 10579 10586 10596 10612 10617 10621 10630 10640 10647 10653 10659 10667 10677 10691 10701 10706 10710 10716 10718 10725 10726 10731 10737 10742 10745 10750 10752 10754 10756 10756 10757
10449 10459 10468 10474 10480 10489 10500 10506 10511 10516 10527 10544 10547 10555 10561 10583 10589 10595 10602 10626 10630 10636 10641 10646 10656 10667 10681 10688 10691 10697 10704 10710 10713 10717 10719 10724 10728 10731 10735 10737 10740 10741 10741 10740
10430 10440 10453 10460 10466 10477 10483 10488 10494 10503 10512 10517 10525 10533 10542 10559 10568 10576 10587 10603 10611 10620 10626 10631 10639 10649 10664 10674 10680 10685 10692 10696 10704 10709 10710 10713 10714 10716 10718 10722 10726 10727 10726 10726
10412 10419 10432 10442 10446 10457 10468 10476 10478 10488 10496 10495 10510 10520 10531 10537 10547 10557 10568 10581 10592 10603 10608 10614 10622 10630 10642 10652 10657 10663 10674 10682 10691 10694 10697 10701 10702 10705 10705 10708 10711 10713 10713 10713
10393 10399 10415 10424 10429 10438 10451 10453 10461 10473 10481 10484 10497 10505 10511 10522 10529 10538 10547 10560 10570 10583 10591 10598 10603 10612 10621 10630 10635 10643 10654 10662 10670 10678 10681 10686 10687 10690 10693 10696 10698 10700 10703 10704
10372 10381 10397 10405 10409 10421 10432 10440 10450 10457 10464 10471 10480 10482 10501 10506 10511 10519 10528 10537 10548 10559 10568 10577 10584 10590 10598 10608 10616 10626 10635 10649 10659 10661 10666 10669 10671 10674 10680 10682 10685 10688 10690 10690
10349 10360 10374 10379 10399 10404 10416 10424 10431 10440 10453 10458 10459 10465 10481 10490 10496 10501 10509 10517 10526 10536 10545 10554 10564 10570 10577 10587 10596 10606 10614 10626 10634 10640 10644 10649 10653 10659 10664 10666 10670 10672 10674 10675
10326 10337 10353 10365 10374 10382 10392 10405 10417 10427 10430 10443 10445 10456 10463 10472 10479 10484 10490 10497 10506 10515 10524 10533 10541 10549 10558 10565 10573 10584 10592 10605 10613 10619 10624 10627 10634 10641 10645 10650 10654 10656 10658 10659
10307 10318 10329 10341 10349 10370 10378 10391 10401 10409 10412 10425 10431 10435 10450 10454 10463 10468 10474 10480 10489 10499 10507 10514 10522 10530 10537 10545 10553 10563 10571 10581 10591 10599 10604 10609 10616 10622 10626 10633 10638 10639 10640 10643
10291 10300 10310 10322 10332 10345 10357 10369 10379 10386 10397 10403 10413 10422 10432 10438 10443 10451 10458 10465 10473 10481 10488 10495 10502 10509 10517 10524 10533 10541 10549 10558 10568 10577 10584 10592 10600 10603 10611 10615 10621 10623 10622 10617
10271 10282 10290 10300 10312 10324 10334 10344 10356 10367 10376 10386 10392 10404 10414 10419 10425 10431 10438 10446 10454 10461 10467 10474 10481 10488 10494 10502 10509 10518 10526 10535 10544 10552 10560 10569 10575 10582 10585 10593 10600 10603 10604 10597
10249 10258 10268 10280 10292 10302 10312 10321 10335 10345 10354 10364 10373 10384 10393 10399 10406 10413 10419 10426 10434 10440 10447 10454 10461 10467 10473 10479 10486 10494 10503 10510 10518 10525 10533 10541 10550 10558 10563 10570 10580 10583 10584 10584
10224 10235 10245 10257 10266 10275 10290 10302 10313 10322 10331 10339 10351 10362 10367 10377 10384 10392 10399 10406 10414 10420 10427 10434 10440 10447 10453 10457 10462 10470 10479 10486 10492 10499 10508 10517 10524 10532 10540 10545 10555 10559 10560 10561
10202 10211 10221 10230 10239 10256 10267 10278 10285 10296 10306 10315 10325 10338 10344 10354 10361 10368 10378 10386 10393 10400 10407 10414 10420 10427 10433 10438 10442 10448 10456 10464 10471 10477 10484 10490 10497 10505 10510 10517 10523 10532 10538 10539
10178 10186 10196 10207 10216 10229 10239 10256 10262 10271 10279 10291 10301 10311 10322 10327 10333 10337 10354 10364 10372 10379 10386 10393 10400 10406 10413 10417 10421 10428 10434 10441 10447 10453 10462 10469 10475 10480 10487 10493 10498 10506 10512 10516
10152 10160 10172 10179 10190 10205 10216 10226 10234 10240 10253 10270 10272 10283 10292 10297 10304 10325 10329 10332 10344 10354 10363 10371 10379 10387 10393 10399 10403 10408 10414 10419 10427 10434 10441 10448 10453 10458 10464 10470 10476 10483 10488 10494
10126 10134 10143 10151 10162 10178 10188 10195 10198 10212 10226 10237 10242 10251 10258 10270 10281 10295 10305 10310 10322 10332 10342 10351 10359 10367 10374 10380 10386 10390 10394 10398 10402 10410 10419 10428 10434 10439 10443 10449 10454 10460 10465 10473
10099 10101 10108 10120 10131 10143 10162 10160 10173 10181 10191 10201 10211 10221 10232 10242 10255 10267 10279 10289 10298 10308 10316 10326 10335 10343 10350 10357 10364 10370 10375 10377 10382 10386 10393 10402 10412 10419 10425 10430 10434 10440 10445 10451
10074 10075 10083 10086 10107 10111 10122 10129 10140 10148 10158 10168 10179 10191 10203 10213 10222 10234 10246 10257 10269 10278 10286 10296 10306 10315 10323 10333 10340 10346 10352 10357 10359 10364 10368 10375 10386 10395 10404 10411 10415 10421 10425 10430
10043 10045 10058 10067 10072 10074 10091 10097 10105 10113 10124 10137 10149 10161 10173 10182 10192 10202 10215 10227 10238 10248 10257 10267 10277 10285 10291 10299 10311 10319 10325 10331 10335 10341 10348 10351 10358 10368 10378 10387 10393 10399 10405 10408
10008 10017 10020 10040 10036 10043 10057 10065 10076 10088 10099 10106 10114 10129 10139 10147 10161 10171 10182 10192 10204 10216 10226 10236 10245 10253 10261 10269 10280 10288 10299 10305 10308 10313 10319 10326 10331 10340 10349 10360 10369 10376 10383 10388